THORAD AGENA D DEB, 42510

Orbit data source: Space-Track

THORAD AGENA D DEB, 42510 is space debris in SSO originally from a launch on Wed, 08 Apr 1970 UTC launched from the Air Force Western Test Range (AFWTR). Debris objects in space refer to the collection of defunct objects orbiting the Earth. Examples of debris include non-operational satellites, rocket bodies, and fragments generated from explosions, collisions, or faulty payload assembly.

Loading next visibility...
Identifier
42510, 1970-025RQ
Orbit
SSO
Country
Flag of USUS
Related business
Manufacturer
Unknown
Mission
Spacecraft
Bus & Motor
Unknown
Mass
Unknown
Launch date (UTC)
1970-04-08 (56 years ago)
Launch vehicle
Unknown
Launch site
Air Force Western Test Range (AFWTR)
Object type
Payload
Rocket body
Debris
Shape & HBR
Unknown shape, 0.1 m
Radar Cross Section
Small (<0.1 m²)

Expand to show TLE details & history
Last TLE update: 1 week ago

TLE from 1 week ago
0 THORAD AGENA D DEB
1 42510U 70025RQ  26200.74677977  .00000402  00000-0  41978-3 0  9998
2 42510 100.0397 213.7253 0004179  31.3588 328.7812 13.82151303636830
Epoch: 2026-07-19T17:55Z
TLE epoch observation values (Epoch: 2026-07-19T17:55:21.772Z)
Latitude
0.00004°
Longitude
7.34383°
Altitude
956.462 km
Speed
7.375 km/s
True Right ascension
14h 14m 54s
True Declination
0° 00' 00"
Sunlit
Object was in daylight at epoch
Visualization orbit readout
Latitude
Unknown
Longitude
Unknown
Altitude
Unknown
Speed
Unknown
Apparent Right ascension
Unknown
Apparent Declination
Unknown
Sunlit
N/A
Visualization observer readout
Local Sidereal Time
07:38:29
Azimuth
Unknown
Elevation
Unknown
Doppler factor
Unknown
Orbital elements
Apogee altitude
956.607 km
Perigee altitude
950.479 km
Semi-major axis
7,331.68 km
Eccentricity
0.00042
Inclination
100.0397°
RAAN
213.7253°
Arg. of periapsis
31.3588°
True anomaly
328.75637°
Mean anomaly
328.7812°
Eccentric anomaly
328.76879°
Mean motion
3.45731 °/min
Orbital period
104.13 mins
BSTAR
0.00041978
Loading maneuver chart data...
Computing Atmospheric mass density...

Documentation

Showing up to 5 results
|